[Date Prev][Date Next][Thread Prev][Thread Next] - [Date Index][Thread Index][Author Index]

2 Line ISS Keps 3-15



ISS
1 25544U 98067A   02074.18477447  .00069496  00000-0  92438-3 0  1888
2 25544  51.6383 165.1725 0004033 266.7895 174.6578 15.57522538189377


----
Via the sarex mailing list at AMSAT.ORG courtesy of AMSAT-NA.
To unsubscribe, send "unsubscribe sarex" to Majordomo@amsat.org



AMSAT Top AMSAT Home